FW5713 Weather Reports


Display with metric or nautical units.
time (UTC)temp
F
wind
direction
speed
MPH
gust
MPH
rain 1hr
in
rain 24hr
in
rain mn
in
humidity
%
barometer
mb
20260510203811 91 229 2.0 10.0 0.00 0.00 0.00 63 1017.5
20260510202812 91 248 2.0 10.0 0.00 0.00 0.00 62 1017.4
20260510201748 92 314 3.0 14.0 0.00 0.00 0.00 61 1017.2
20260510200749 92 298 5.0 14.0 0.00 0.00 0.00 62 1017.3
20260510195746 94 258 2.0 12.0 0.00 0.00 0.00 59 1017.3
20260510194731 94 209 3.0 12.0 0.00 0.00 0.00 58 1017.3
20260510193728 94 252 2.0 9.0 0.00 0.00 0.00 59 1017.3
20260510192743 94 261 1.0 10.0 0.00 0.00 0.00 61 1017.4
20260510191742 92 180 3.0 10.0 0.00 0.00 0.00 63 1017.4
20260510190711 94 298 3.0 9.0 0.00 0.00 0.00 63 1017.4
20260510185729 95 253 2.0 9.0 0.00 0.00 0.00 59 1017.3
20260510184737 96 237 2.0 9.0 0.00 0.00 0.00 58 1017.4
20260510183759 95 242 2.0 12.0 0.00 0.00 0.00 59 1017.4
20260510182733 95 153 2.0 12.0 0.00 0.00 0.00 58 1017.6
20260510181721 95 163 1.0 11.0 0.00 0.00 0.00 59 1017.6
20260510180703 94 250 2.0 9.0 0.00 0.00 0.00 62 1017.9
20260510175723 94 251 2.0 8.0 0.00 0.00 0.00 60 1017.9
20260510174747 94 253 1.0 8.0 0.00 0.00 0.00 61 1018.0
20260510173810 93 221 2.0 9.0 0.00 0.00 0.00 61 1018.0
20260510172758 93 166 0.0 6.0 0.00 0.00 0.00 62 1018.2
20260510170605 94 185 1.0 7.0 0.00 0.00 0.00 61 1018.5
20260510165552 94 175 0.0 4.0 0.00 0.00 0.00 61 1018.5
20260510164521 93 165 0.0 5.0 0.00 0.00 0.00 61 1018.7
20260510163454 94 165 0.0 8.0 0.00 0.00 0.00 61 1018.6
20260510162424 93 248 0.0 8.0 0.00 0.00 0.00 62 1018.8
20260510161410 94 311 1.0 6.0 0.00 0.00 0.00 62 1018.7
20260510160436 92 190 0.0 6.0 0.00 0.00 0.00 63 1018.9
20260510155417 92 155 0.0 0.0 0.00 0.00 0.00 64 1018.8
20260510154442 91 171 0.0 6.0 0.00 0.00 0.00 65 1018.8
20260510153443 90 184 0.0 7.0 0.00 0.00 0.00 65 1018.9
20260510152448 89 171 1.0 9.0 0.00 0.00 0.00 66 1018.9
20260510151503 88 153 1.0 9.0 0.00 0.00 0.00 66 1018.9
20260510150452 88 159 1.0 6.0 0.00 0.00 0.00 66 1019.0
20260510145449 88 136 2.0 9.0 0.00 0.00 0.00 68 1019.0
20260510143405 86 209 1.0 7.0 0.00 0.00 0.00 72 1019.0
20260510142345 86 190 1.0 7.0 0.00 0.00 0.00 71 1018.9
20260510141327 86 171 0.0 1.0 0.00 0.00 0.00 73 1018.7
20260510140348 85 205 0.0 0.0 0.00 0.00 0.00 73 1018.7
20260510135339 84 155 0.0 0.0 0.00 0.00 0.00 73 1018.7
20260510134358 83 151 0.0 5.0 0.00 0.00 0.00 72 1018.8
20260510133359 82 157 0.0 5.0 0.00 0.00 0.00 72 1018.6
20260510132343 81 121 0.0 1.0 0.00 0.00 0.00 72 1018.4
20260510131353 81 193 0.0 4.0 0.00 0.00 0.00 71 1018.3
20260510125143 79 188 0.0 0.0 0.00 0.00 0.00 71 1018.3
20260510124121 78 155 0.0 0.0 0.00 0.00 0.00 71 1018.3
20260510121927 77 187 0.0 1.0 0.00 0.00 0.00 73 1018.0
20260510120916 76 190 0.0 0.0 0.00 0.00 0.00 74 1017.9
20260510114745 75 213 0.0 0.0 0.00 0.00 0.00 74 1017.5
20260510113717 75 213 0.0 0.0 0.00 0.00 0.00 74 1017.4
20260510112720 75 213 0.0 0.0 0.00 0.00 0.00 74 1017.2
20260510111701 75 213 0.0 0.0 0.00 0.00 0.00 74 1017.1
20260510110636 75 213 0.0 0.0 0.00 0.00 0.00 74 1016.9
20260510105626 75 185 0.0 0.0 0.00 0.00 0.00 74 1016.9
20260510103433 75 185 0.0 0.0 0.00 0.00 0.00 74 1016.5
20260510102446 75 185 0.0 0.0 0.00 0.00 0.00 74 1016.4
20260510101459 75 185 0.0 0.0 0.00 0.00 0.00 74 1016.2
20260510100520 75 185 0.0 0.0 0.00 0.00 0.00 74 1016.2
20260510095529 75 185 0.0 0.0 0.00 0.00 0.00 74 1016.1
20260510094502 75 185 0.0 0.0 0.00 0.00 0.00 74 1016.2
20260510093437 76 185 0.0 0.0 0.00 0.00 0.00 74 1015.9
20260510092438 76 185 0.0 0.0 0.00 0.00 0.00 75 1015.8
20260510091452 76 185 0.0 0.0 0.00 0.00 0.00 75 1015.8
20260510090442 76 185 0.0 0.0 0.00 0.00 0.00 75 1015.7
20260510085451 76 185 0.0 0.0 0.00 0.00 0.00 75 1015.6
20260510084433 76 185 0.0 0.0 0.00 0.00 0.00 75 1015.5
20260510083404 77 185 0.0 0.0 0.00 0.00 0.00 75 1015.4
20260510081201 77 186 0.0 0.0 0.00 0.00 0.00 75 1015.6
20260510080136 77 186 0.0 0.0 0.00 0.00 0.00 75 1015.7
20260510075155 77 186 0.0 0.0 0.00 0.00 0.00 75 1015.6
20260510071935 78 186 0.0 0.0 0.00 0.00 0.00 76 1015.8
20260510064545 78 186 0.0 0.0 0.00 0.00 0.00 76 1015.9
20260510062450 78 186 0.0 0.0 0.00 0.00 0.00 76 1016.2
20260510061505 78 186 0.0 0.0 0.00 0.00 0.00 76 1016.7
20260510060432 78 186 0.0 0.0 0.00 0.00 0.00 76 1016.7
20260510055408 78 186 0.0 0.0 0.00 0.00 0.00 77 1016.8
20260510054431 78 187 0.0 0.0 0.00 0.00 0.00 77 1016.9
20260510052232 79 198 0.0 0.0 0.00 0.00 0.00 77 1017.1
20260510042725 79 190 0.0 0.0 0.00 0.00 0.00 79 1017.5
20260510041706 79 200 0.0 0.0 0.00 0.00 0.00 78 1017.5
20260510040644 79 290 0.0 0.0 0.00 0.00 0.00 78 1017.3
20260510035617 79 290 0.0 0.0 0.00 0.00 0.00 78 1017.1
20260510034604 79 290 0.0 0.0 0.00 0.00 0.00 78 1017.1
20260510033538 79 290 0.0 0.0 0.00 0.00 0.00 78 1017.0
20260510032544 79 290 0.0 0.0 0.00 0.00 0.00 78 1016.9
20260510031602 80 290 0.0 0.0 0.00 0.00 0.00 78 1017.1
20260510030541 80 290 0.0 0.0 0.00 0.00 0.00 78 1017.2
20260510025541 80 290 0.0 0.0 0.00 0.00 0.00 77 1017.1
20260510024551 81 290 0.0 0.0 0.00 0.00 0.00 76 1017.1
20260510023528 81 290 0.0 0.0 0.00 0.00 0.00 76 1017.1
20260510022542 81 290 0.0 0.0 0.00 0.00 0.00 76 1017.2
20260510021548 81 290 0.0 0.0 0.00 0.00 0.00 75 1017.1
20260510020549 81 290 0.0 0.0 0.00 0.00 0.00 74 1016.9
20260510014414 82 290 0.0 0.0 0.00 0.00 0.00 73 1016.6
20260510013430 83 290 0.0 0.0 0.00 0.00 0.00 73 1016.4
20260510011325 83 313 0.0 3.0 0.00 0.00 0.00 72 1016.1
20260510010325 84 287 0.0 0.0 0.00 0.00 0.00 70 1016.1
20260510005328 84 312 0.0 3.0 0.00 0.00 0.00 68 1015.8
20260510004342 84 305 0.0 7.0 0.00 0.00 0.00 68 1015.7
20260510003354 85 267 0.0 4.0 0.00 0.00 0.00 67 1015.6
20260510002409 85 305 1.0 7.0 0.00 0.00 0.00 66 1015.4
20260510001411 85 289 0.0 6.0 0.00 0.00 0.00 65 1015.2
20260510000413 86 275 1.0 9.0 0.00 0.00 0.00 64 1015.0
20260509235402 86 282 1.0 9.0 0.00 0.00 0.00 62 1014.8
20260509234346 87 259 0.0 2.0 0.00 0.00 0.00 59 1014.7
20260509233333 88 304 0.0 3.0 0.00 0.00 0.00 58 1014.5
20260509232348 89 236 0.0 5.0 0.00 0.00 0.00 57 1014.6
20260509231404 90 227 0.0 2.0 0.00 0.00 0.00 57 1014.6
20260509230414 90 237 0.0 5.0 0.00 0.00 0.00 56 1014.5
20260509225437 90 205 0.0 7.0 0.00 0.00 0.00 55 1014.3
20260509223313 91 227 0.0 6.0 0.00 0.00 0.00 55 1014.2
20260509222246 92 263 0.0 6.0 0.00 0.00 0.00 56 1014.1
20260509221247 92 281 1.0 7.0 0.00 0.00 0.00 55 1014.1
20260509220247 93 256 1.0 9.0 0.00 0.00 0.00 53 1014.0
20260509215232 94 244 0.0 9.0 0.00 0.00 0.00 53 1014.0
20260509214206 93 242 2.0 10.0 0.00 0.00 0.00 53 1013.8
20260509213151 93 225 3.0 12.0 0.00 0.00 0.00 53 1013.9
20260509212145 94 247 2.0 12.0 0.00 0.00 0.00 53 1013.7
20260509210038 94 254 1.0 10.0 0.00 0.00 0.00 53 1013.4
20260509205007 94 165 2.0 11.0 0.00 0.00 0.00 55 1013.4